Regional Weather Roundup
Issued by NWS

Home | Current Version | Previous Version | Text Only | Print | Product List | Glossary Off
Versions: 1 2 3 4 5 6 7 8 9 10 11 12 13 14 15 16 17 18 19 20 21 22 23 24 25 26 27 28 29 30 31 32 33 34 35 36 37 38 39 40 41 42 43 44 45 46 47 48 49 50

515
ASUS44 KJAN 201410
RWRMS

MISSISSIPPI HOURLY WEATHER ROUNDUP
NATIONAL WEATHER SERVICE JACKSON MS
800 AM CST THU NOV 20 2014

NOTE: "FAIR: INDICATES FEW OR NO CLOUDS BELOW 12,000 FEET WITH NO
SIGNIFICANT WEATHER AND/OR OBSTRUCTIONS TO VISIBILITY.

MSZ001>002-007>008-010>013-018>021-025>028-034>036-201500-
NORTHWEST MISSISSIPPI

CITY           SKY/WX    TMP DP  RH WIND       PRES   REMARKS
CLARKSDALE     FAIR      37  32  81 N8        30.29S WCI  31
CLEVELAND      CLOUDY    41  40  97 N5        30.27R
GREENWOOD      CLOUDY    46  34  62 CALM      30.27R
GREENVILLE     CLOUDY    46  40  79 CALM      30.26R
GRENADA        FAIR      39  34  81 CALM      30.28R
OLIVE BRANCH   MOSUNNY   34  32  93 NE5       30.28R WCI  30
OXFORD         FAIR      36  34  93 NE5       30.28R WCI  32
TUNICA         SUNNY     36  32  87 CALM      30.30R
$$

MSZ003>006-009-014>017-022>024-029>033-037>039-201500-
NORTHEAST MISSISSIPPI

CITY           SKY/WX    TMP DP  RH WIND       PRES   REMARKS
COLUMBUS AFB   SUNNY     42  34  73 S3        30.28R
CORINTH        FAIR      34  30  86 CALM      30.27R
GOLDN TRIANGLE PTSUNNY   43  36  75 S6        30.27R
STARKVILLE       N/A    N/A N/A N/A MISG        N/A
TUPELO         SUNNY     39  29  67 CALM      30.26R
$$

MSZ040-058-201500-
CENTRAL MISSISSIPPI

CITY           SKY/WX    TMP DP  RH WIND       PRES   REMARKS
JACKSON INTL   PTSUNNY   48  42  80 S6        30.27R
JACKSON HAWKNS PTSUNNY   45  40  82 S5        30.27R
MERIDIAN KEY   MOSUNNY   42  38  85 S6        30.29R
MERIDIAN NAS   PTSUNNY   46  39  76 W5        30.29R
RAYMOND        PTSUNNY   45  41  87 CALM      30.27R
VICKSBURG      MOSUNNY   44  40  85 SE3       30.26R
$$

MSZ059>079-201500-
SOUTH MISSISSIPPI

CITY           SKY/WX    TMP DP  RH WIND       PRES   REMARKS
BROOKHAVEN     FAIR      45  45 100 CALM      30.28S
COLUMBIA         N/A     45  41  87 MISG        N/A
HATTIESBURG    SUNNY     40  37  89 CALM      30.30S
MCCOMB         SUNNY     46  43  89 CALM      30.27S
NATCHEZ        SUNNY     48  43  81 S6        30.26S
PINE BELT      SUNNY     43  37  81 CALM      30.30R
$$

MSZ080>082-201500-
COASTAL MISSISSIPPI

CITY           SKY/WX    TMP DP  RH WIND       PRES   REMARKS
BAY ST LOUIS   MOSUNNY   43  37  81 CALM      30.32R
BILOXI         SUNNY     43  41  90 CALM      30.31R
PASCAGOULA     SUNNY     42  39  89 CALM      30.32R
GULFPORT       SUNNY     44  40  85 CALM      30.31R
$$



USA.gov is the U.S. government's official web portal to all federal, state and local government web resources and services.